Time,TemperatureF,DewpointF,PressureIn,WindDirection,WindDirectionDegrees,WindSpeedMPH,WindSpeedGustMPH,Humidity,HourlyPrecipIn,Conditions,Clouds,dailyrainin,SolarRadiationWatts/m^2,SoftwareType,DateUTC
2013-02-15 00:07:00,11.6,8.0,30.63,NE,53,4.0,-999.0,86,-99.99,,,0.00,0,weatherlink.com 1.10,2013-02-15 07:07:00,
2013-02-15 00:22:00,11.6,8.0,30.63,ENE,58,4.0,-999.0,86,-99.99,,,0.00,0,weatherlink.com 1.10,2013-02-15 07:22:00,
2013-02-15 00:38:00,12.3,9.0,30.63,SSE,159,0.0,-999.0,87,-99.99,,,0.00,0,weatherlink.com 1.10,2013-02-15 07:38:00,
2013-02-15 00:53:00,12.5,9.0,30.65,SSE,151,0.0,-999.0,87,-99.99,,,0.00,0,weatherlink.com 1.10,2013-02-15 07:53:00,
2013-02-15 01:08:00,12.6,10.0,30.64,East,90,0.0,-999.0,87,-99.99,,,0.00,0,weatherlink.com 1.10,2013-02-15 08:08:00,
2013-02-15 01:23:00,12.6,10.0,30.65,East,90,0.0,-999.0,87,-99.99,,,0.00,0,weatherlink.com 1.10,2013-02-15 08:23:00,
2013-02-15 01:38:00,12.6,10.0,30.66,East,90,0.0,-999.0,87,-99.99,,,0.00,0,weatherlink.com 1.10,2013-02-15 08:38:00,
2013-02-15 01:53:00,11.4,8.0,30.66,WNW,290,0.0,-999.0,85,-99.99,,,0.00,0,weatherlink.com 1.10,2013-02-15 08:53:00,
2013-02-15 02:08:00,8.3,4.0,30.66,NNE,32,0.0,-999.0,83,-99.99,,,0.00,0,weatherlink.com 1.10,2013-02-15 09:08:00,
2013-02-15 02:23:00,9.0,6.0,30.67,NNE,26,0.0,-999.0,87,-99.99,,,0.00,0,weatherlink.com 1.10,2013-02-15 09:23:00,
2013-02-15 02:38:00,8.7,6.0,30.68,NNE,28,1.0,-999.0,87,-99.99,,,0.00,0,weatherlink.com 1.10,2013-02-15 09:38:00,
2013-02-15 02:53:00,8.7,6.0,30.68,WNW,294,0.0,-999.0,87,-99.99,,,0.00,0,weatherlink.com 1.10,2013-02-15 09:53:00,
2013-02-15 03:08:00,9.3,7.0,30.68,WNW,294,0.0,-999.0,88,-99.99,,,0.00,0,weatherlink.com 1.10,2013-02-15 10:08:00,
2013-02-15 03:23:00,9.7,7.0,30.69,WNW,282,0.0,-999.0,88,-99.99,,,0.00,0,weatherlink.com 1.10,2013-02-15 10:23:00,
2013-02-15 03:38:00,10.3,8.0,30.70,SW,227,2.0,-999.0,88,-99.99,,,0.00,0,weatherlink.com 1.10,2013-02-15 10:38:00,
2013-02-15 03:53:00,10.1,7.0,30.70,SW,219,4.0,-999.0,88,-99.99,,,0.00,0,weatherlink.com 1.10,2013-02-15 10:53:00,
2013-02-15 04:08:00,11.1,8.0,30.71,SSW,209,2.0,-999.0,88,-99.99,,,0.00,0,weatherlink.com 1.10,2013-02-15 11:08:00,
2013-02-15 04:23:00,11.0,8.0,30.71,SW,234,0.0,-999.0,87,-99.99,,,0.00,0,weatherlink.com 1.10,2013-02-15 11:23:00,
2013-02-15 04:38:00,11.0,8.0,30.72,West,267,1.0,-999.0,87,-99.99,,,0.00,0,weatherlink.com 1.10,2013-02-15 11:38:00,
2013-02-15 04:53:00,11.2,8.0,30.73,West,264,0.0,-999.0,87,-99.99,,,0.00,0,weatherlink.com 1.10,2013-02-15 11:53:00,
2013-02-15 05:08:00,12.3,9.0,30.73,WSW,253,0.0,-999.0,87,-99.99,,,0.00,0,weatherlink.com 1.10,2013-02-15 12:08:00,
2013-02-15 05:23:00,13.1,10.0,30.74,WSW,253,1.0,-999.0,88,-99.99,,,0.00,0,weatherlink.com 1.10,2013-02-15 12:23:00,
2013-02-15 05:39:00,13.8,11.0,30.75,WSW,252,0.0,-999.0,87,-99.99,,,0.00,0,weatherlink.com 1.10,2013-02-15 12:39:00,
2013-02-15 05:54:00,13.6,10.0,30.75,WSW,252,0.0,-999.0,86,-99.99,,,0.00,0,weatherlink.com 1.10,2013-02-15 12:54:00,
2013-02-15 06:08:00,13.9,11.0,30.75,WSW,252,0.0,-999.0,86,-99.99,,,0.00,0,weatherlink.com 1.10,2013-02-15 13:08:00,
2013-02-15 06:23:00,14.2,11.0,30.77,WSW,252,0.0,-999.0,86,-99.99,,,0.00,0,weatherlink.com 1.10,2013-02-15 13:23:00,
2013-02-15 06:38:00,14.8,11.0,30.77,WSW,252,0.0,-999.0,86,-99.99,,,0.00,0,weatherlink.com 1.10,2013-02-15 13:38:00,
2013-02-15 06:54:00,14.4,11.0,30.77,WSW,239,1.0,-999.0,85,-99.99,,,0.00,0,weatherlink.com 1.10,2013-02-15 13:54:00,
2013-02-15 07:08:00,13.9,10.0,30.78,West,267,0.0,-999.0,84,-99.99,,,0.00,0,weatherlink.com 1.10,2013-02-15 14:08:00,
2013-02-15 07:23:00,14.5,11.0,30.79,WSW,241,2.0,-999.0,84,-99.99,,,0.00,7,weatherlink.com 1.10,2013-02-15 14:23:00,
2013-02-15 07:39:00,13.9,10.0,30.79,WSW,241,3.0,-999.0,84,-99.99,,,0.00,12,weatherlink.com 1.10,2013-02-15 14:39:00,
2013-02-15 07:54:00,12.0,8.0,30.80,SW,236,3.0,-999.0,83,-99.99,,,0.00,28,weatherlink.com 1.10,2013-02-15 14:54:00,
2013-02-15 08:09:00,11.7,8.0,30.81,SW,236,0.0,-999.0,84,-99.99,,,0.00,54,weatherlink.com 1.10,2013-02-15 15:09:00,
2013-02-15 08:24:00,12.0,8.0,30.81,WSW,244,3.0,-999.0,84,-99.99,,,0.00,67,weatherlink.com 1.10,2013-02-15 15:24:00,
2013-02-15 08:39:00,13.1,9.0,30.81,West,261,0.0,-999.0,83,-99.99,,,0.00,232,weatherlink.com 1.10,2013-02-15 15:39:00,
2013-02-15 08:54:00,14.1,9.0,30.82,West,276,2.0,-999.0,81,-99.99,,,0.00,265,weatherlink.com 1.10,2013-02-15 15:54:00,
2013-02-15 09:09:00,16.2,11.0,30.82,West,269,3.0,-999.0,81,-99.99,,,0.00,306,weatherlink.com 1.10,2013-02-15 16:09:00,
2013-02-15 09:24:00,18.5,13.0,30.82,West,261,2.0,-999.0,79,-99.99,,,0.00,348,weatherlink.com 1.10,2013-02-15 16:24:00,
2013-02-15 09:39:00,21.3,15.0,30.82,WSW,242,3.0,-999.0,75,-99.99,,,0.00,396,weatherlink.com 1.10,2013-02-15 16:39:00,
2013-02-15 09:54:00,23.5,16.0,30.81,SW,226,3.0,-999.0,72,-99.99,,,0.00,441,weatherlink.com 1.10,2013-02-15 16:54:00,
2013-02-15 10:09:00,25.7,17.0,30.82,SW,217,4.0,-999.0,69,-99.99,,,0.00,476,weatherlink.com 1.10,2013-02-15 17:09:00,
2013-02-15 10:24:00,26.3,17.0,30.81,SW,219,0.0,-999.0,67,-99.99,,,0.00,506,weatherlink.com 1.10,2013-02-15 17:24:00,
2013-02-15 10:40:00,27.2,17.0,30.81,SSW,208,0.0,-999.0,65,-99.99,,,0.00,540,weatherlink.com 1.10,2013-02-15 17:40:00,
2013-02-15 10:54:00,27.7,17.0,30.80,South,169,0.0,-999.0,65,-99.99,,,0.00,566,weatherlink.com 1.10,2013-02-15 17:54:00,
2013-02-15 11:10:00,28.5,18.0,30.80,South,169,2.0,-999.0,65,-99.99,,,0.00,589,weatherlink.com 1.10,2013-02-15 18:10:00,
2013-02-15 11:24:00,29.7,18.0,30.79,SSE,155,5.0,-999.0,63,-99.99,,,0.00,608,weatherlink.com 1.10,2013-02-15 18:24:00,
2013-02-15 11:39:00,30.8,19.0,30.79,South,174,6.0,-999.0,62,-99.99,,,0.00,626,weatherlink.com 1.10,2013-02-15 18:39:00,
2013-02-15 11:55:00,31.2,19.0,30.78,South,182,4.0,-999.0,61,-99.99,,,0.00,643,weatherlink.com 1.10,2013-02-15 18:55:00,
2013-02-15 12:10:00,31.2,20.0,30.77,SE,142,5.0,-999.0,63,-99.99,,,0.00,621,weatherlink.com 1.10,2013-02-15 19:10:00,
2013-02-15 12:25:00,31.1,19.0,30.77,ESE,117,8.0,-999.0,62,-99.99,,,0.00,636,weatherlink.com 1.10,2013-02-15 19:25:00,
2013-02-15 12:40:00,31.0,19.0,30.77,SE,144,6.0,-999.0,62,-99.99,,,0.00,613,weatherlink.com 1.10,2013-02-15 19:40:00,
2013-02-15 12:55:00,31.8,18.0,30.76,ESE,120,7.0,-999.0,58,-99.99,,,0.00,679,weatherlink.com 1.10,2013-02-15 19:55:00,
2013-02-15 13:10:00,32.2,18.0,30.74,SE,130,13.0,-999.0,55,-99.99,,,0.00,619,weatherlink.com 1.10,2013-02-15 20:10:00,
2013-02-15 13:25:00,32.1,19.0,30.73,ESE,114,11.0,-999.0,58,-99.99,,,0.00,545,weatherlink.com 1.10,2013-02-15 20:25:00,
2013-02-15 13:40:00,32.6,20.0,30.72,ESE,115,7.0,-999.0,59,-99.99,,,0.00,650,weatherlink.com 1.10,2013-02-15 20:40:00,
2013-02-15 13:55:00,33.2,20.0,30.72,SSE,148,5.0,-999.0,58,-99.99,,,0.00,591,weatherlink.com 1.10,2013-02-15 20:55:00,
2013-02-15 14:10:00,33.4,19.0,30.71,ESE,112,5.0,-999.0,56,-99.99,,,0.00,464,weatherlink.com 1.10,2013-02-15 21:10:00,
2013-02-15 14:25:00,34.1,19.0,30.71,ESE,109,5.0,-999.0,55,-99.99,,,0.00,448,weatherlink.com 1.10,2013-02-15 21:25:00,
2013-02-15 14:40:00,34.4,19.0,30.70,ENE,78,4.0,-999.0,54,-99.99,,,0.00,513,weatherlink.com 1.10,2013-02-15 21:40:00,
2013-02-15 14:55:00,33.9,19.0,30.69,ENE,76,6.0,-999.0,55,-99.99,,,0.00,480,weatherlink.com 1.10,2013-02-15 21:55:00,
2013-02-15 15:10:00,33.8,19.0,30.69,ENE,76,3.0,-999.0,56,-99.99,,,0.00,445,weatherlink.com 1.10,2013-02-15 22:10:00,
2013-02-15 15:25:00,33.7,19.0,30.69,East,80,5.0,-999.0,56,-99.99,,,0.00,413,weatherlink.com 1.10,2013-02-15 22:25:00,
2013-02-15 15:40:00,32.5,21.0,30.68,ENE,63,6.0,-999.0,63,-99.99,,,0.00,367,weatherlink.com 1.10,2013-02-15 22:40:00,
2013-02-15 15:55:00,31.2,21.0,30.67,ENE,60,5.0,-999.0,66,-99.99,,,0.00,322,weatherlink.com 1.10,2013-02-15 22:55:00,
2013-02-15 16:10:00,29.4,21.0,30.67,NE,55,7.0,-999.0,70,-99.99,,,0.00,271,weatherlink.com 1.10,2013-02-15 23:10:00,
2013-02-15 16:25:00,27.7,20.0,30.67,NNE,30,9.0,-999.0,72,-99.99,,,0.00,156,weatherlink.com 1.10,2013-02-15 23:25:00,
2013-02-15 16:40:00,26.7,19.0,30.66,ENE,60,10.0,-999.0,73,-99.99,,,0.00,148,weatherlink.com 1.10,2013-02-15 23:40:00,
2013-02-15 16:55:00,25.9,19.0,30.67,ENE,59,5.0,-999.0,74,-99.99,,,0.00,104,weatherlink.com 1.10,2013-02-15 23:55:00,
2013-02-15 17:10:00,24.8,18.0,30.66,NE,55,7.0,-999.0,75,-99.99,,,0.00,65,weatherlink.com 1.10,2013-02-16 00:10:00,
2013-02-15 17:25:00,24.0,17.0,30.66,ENE,60,6.0,-999.0,75,-99.99,,,0.00,26,weatherlink.com 1.10,2013-02-16 00:25:00,
2013-02-15 17:40:00,23.8,17.0,30.66,ENE,59,5.0,-999.0,76,-99.99,,,0.00,9,weatherlink.com 1.10,2013-02-16 00:40:00,
2013-02-15 17:55:00,23.2,17.0,30.66,ENE,60,4.0,-999.0,77,-99.99,,,0.00,0,weatherlink.com 1.10,2013-02-16 00:55:00,
2013-02-15 18:10:00,23.1,17.0,30.66,NNE,30,5.0,-999.0,77,-99.99,,,0.00,0,weatherlink.com 1.10,2013-02-16 01:10:00,
2013-02-15 18:25:00,21.9,16.0,30.66,NE,47,4.0,-999.0,78,-99.99,,,0.00,0,weatherlink.com 1.10,2013-02-16 01:25:00,
2013-02-15 18:40:00,20.7,15.0,30.66,NNE,32,4.0,-999.0,79,-99.99,,,0.00,0,weatherlink.com 1.10,2013-02-16 01:40:00,
2013-02-15 18:55:00,20.5,16.0,30.66,NNE,13,3.0,-999.0,81,-99.99,,,0.00,0,weatherlink.com 1.10,2013-02-16 01:55:00,
2013-02-15 19:10:00,20.6,15.0,30.65,NNE,18,0.0,-999.0,80,-99.99,,,0.00,0,weatherlink.com 1.10,2013-02-16 02:10:00,
2013-02-15 19:25:00,20.9,16.0,30.66,North,360,0.0,-999.0,80,-99.99,,,0.00,0,weatherlink.com 1.10,2013-02-16 02:25:00,
2013-02-15 19:40:00,20.4,15.0,30.66,North,11,2.0,-999.0,81,-99.99,,,0.00,0,weatherlink.com 1.10,2013-02-16 02:40:00,
2013-02-15 19:55:00,20.2,15.0,30.65,North,11,0.0,-999.0,80,-99.99,,,0.00,0,weatherlink.com 1.10,2013-02-16 02:55:00,
2013-02-15 20:10:00,20.6,15.0,30.65,North,11,0.0,-999.0,80,-99.99,,,0.00,0,weatherlink.com 1.10,2013-02-16 03:10:00,
2013-02-15 20:25:00,21.6,16.0,30.65,North,11,0.0,-999.0,79,-99.99,,,0.00,0,weatherlink.com 1.10,2013-02-16 03:25:00,
2013-02-15 20:40:00,21.5,16.0,30.65,North,11,0.0,-999.0,78,-99.99,,,0.00,0,weatherlink.com 1.10,2013-02-16 03:40:00,
2013-02-15 20:55:00,22.4,17.0,30.65,North,11,0.0,-999.0,78,-99.99,,,0.00,0,weatherlink.com 1.10,2013-02-16 03:55:00,
2013-02-15 21:10:00,23.3,17.0,30.66,North,11,0.0,-999.0,76,-99.99,,,0.00,0,weatherlink.com 1.10,2013-02-16 04:10:00,
2013-02-15 21:25:00,21.4,14.0,30.66,North,11,5.0,-999.0,74,-99.99,,,0.00,0,weatherlink.com 1.10,2013-02-16 04:25:00,
2013-02-15 21:40:00,22.0,16.0,30.66,North,11,2.0,-999.0,79,-99.99,,,0.00,0,weatherlink.com 1.10,2013-02-16 04:40:00,
2013-02-15 21:55:00,21.6,15.0,30.66,North,11,3.0,-999.0,76,-99.99,,,0.00,0,weatherlink.com 1.10,2013-02-16 04:55:00,
2013-02-15 22:10:00,21.3,15.0,30.66,North,11,2.0,-999.0,78,-99.99,,,0.00,0,weatherlink.com 1.10,2013-02-16 05:10:00,
2013-02-15 22:25:00,23.1,17.0,30.66,North,11,2.0,-999.0,76,-99.99,,,0.00,0,weatherlink.com 1.10,2013-02-16 05:25:00,
2013-02-15 22:40:00,23.8,17.0,30.66,East,96,2.0,-999.0,75,-99.99,,,0.00,0,weatherlink.com 1.10,2013-02-16 05:40:00,
2013-02-15 22:55:00,23.0,16.0,30.66,ESE,119,4.0,-999.0,75,-99.99,,,0.00,0,weatherlink.com 1.10,2013-02-16 05:55:00,
2013-02-15 23:10:00,21.2,15.0,30.66,ESE,119,0.0,-999.0,78,-99.99,,,0.00,0,weatherlink.com 1.10,2013-02-16 06:10:00,
2013-02-15 23:25:00,21.4,16.0,30.65,ESE,119,0.0,-999.0,80,-99.99,,,0.00,0,weatherlink.com 1.10,2013-02-16 06:25:00,
2013-02-15 23:40:00,21.6,16.0,30.65,ESE,119,0.0,-999.0,80,-99.99,,,0.00,0,weatherlink.com 1.10,2013-02-16 06:40:00,
2013-02-15 23:55:00,21.3,15.0,30.65,West,261,5.0,-999.0,78,-99.99,,,0.00,0,weatherlink.com 1.10,2013-02-16 06:55:00,